Time,TemperatureF,DewpointF,PressureIn,WindDirection,WindDirectionDegrees,WindSpeedMPH,WindSpeedGustMPH,Humidity,HourlyPrecipIn,Conditions,Clouds,dailyrainin,SolarRadiationWatts/m^2,SoftwareType,DateUTC
2013-02-27 00:01:00,21.0,14.0,-100.00,SE,141,4.0,6.0,73,-99.99,,,-99.99,0.120000,,2013-02-27 07:01:00,
2013-02-27 00:11:00,21.0,14.0,-100.00,SE,141,4.0,6.0,73,-99.99,,,-99.99,0.120000,,2013-02-27 07:11:00,
2013-02-27 00:41:00,22.0,14.0,-100.00,NW,307,1.0,3.0,72,-99.99,,,-99.99,0.120000,,2013-02-27 07:41:00,
2013-02-27 00:52:00,22.0,14.0,-100.00,NW,307,1.0,3.0,72,-99.99,,,-99.99,0.120000,,2013-02-27 07:52:00,
2013-02-27 01:01:00,22.0,14.0,-100.00,NW,307,1.0,3.0,72,-99.99,,,-99.99,0.120000,,2013-02-27 08:01:00,
2013-02-27 01:11:00,22.0,14.0,-100.00,NW,307,1.0,3.0,72,-99.99,,,-99.99,0.120000,,2013-02-27 08:11:00,
2013-02-27 01:41:00,16.0,12.0,-100.00,West,278,3.0,4.0,81,-99.99,,,0.00,0.120000,,2013-02-27 08:41:00,
2013-02-27 01:52:00,16.0,12.0,-100.00,West,278,3.0,4.0,81,-99.99,,,0.00,0.120000,,2013-02-27 08:52:00,
2013-02-27 02:01:00,16.0,12.0,-100.00,West,278,3.0,4.0,81,-99.99,,,0.00,0.120000,,2013-02-27 09:01:00,
2013-02-27 02:11:00,16.0,12.0,-100.00,West,278,3.0,4.0,81,-99.99,,,0.00,0.120000,,2013-02-27 09:11:00,
2013-02-27 02:41:00,12.0,7.0,-100.00,South,174,2.0,4.0,78,-99.99,,,-99.99,0.120000,,2013-02-27 09:41:00,
2013-02-27 02:52:00,12.0,7.0,-100.00,South,174,2.0,4.0,78,-99.99,,,-99.99,0.120000,,2013-02-27 09:52:00,
2013-02-27 03:01:00,12.0,7.0,-100.00,South,174,2.0,4.0,78,-99.99,,,-99.99,0.120000,,2013-02-27 10:01:00,
2013-02-27 03:12:00,12.0,7.0,-100.00,South,174,2.0,4.0,78,-99.99,,,-99.99,0.120000,,2013-02-27 10:12:00,
2013-02-27 03:42:00,14.0,9.0,-100.00,SW,234,2.0,4.0,82,-99.99,,,-99.99,0.120000,,2013-02-27 10:42:00,
2013-02-27 03:52:00,14.0,9.0,-100.00,SW,234,2.0,4.0,82,-99.99,,,-99.99,0.120000,,2013-02-27 10:52:00,
2013-02-27 04:01:00,14.0,9.0,-100.00,SW,234,2.0,4.0,82,-99.99,,,-99.99,0.120000,,2013-02-27 11:01:00,
2013-02-27 04:11:00,14.0,9.0,-100.00,SW,234,2.0,4.0,82,-99.99,,,-99.99,0.120000,,2013-02-27 11:11:00,
2013-02-27 04:41:00,15.0,9.0,-100.00,WSW,239,2.0,4.0,78,-99.99,,,0.00,0.120000,,2013-02-27 11:41:00,
2013-02-27 04:52:00,15.0,9.0,-100.00,WSW,239,2.0,4.0,78,-99.99,,,0.00,0.120000,,2013-02-27 11:52:00,
2013-02-27 05:02:00,15.0,9.0,-100.00,WSW,239,2.0,4.0,78,-99.99,,,0.00,0.120000,,2013-02-27 12:02:00,
2013-02-27 05:12:00,15.0,9.0,-100.00,WSW,239,2.0,4.0,78,-99.99,,,0.00,0.120000,,2013-02-27 12:12:00,
2013-02-27 05:42:00,15.0,9.0,-100.00,SW,233,4.0,6.0,75,-99.99,,,-99.99,0.120000,,2013-02-27 12:42:00,
2013-02-27 05:52:00,15.0,9.0,-100.00,SW,233,4.0,6.0,75,-99.99,,,-99.99,0.120000,,2013-02-27 12:52:00,
2013-02-27 06:02:00,15.0,9.0,-100.00,SW,233,4.0,6.0,75,-99.99,,,-99.99,0.120000,,2013-02-27 13:02:00,
2013-02-27 06:11:00,15.0,9.0,-100.00,SW,233,4.0,6.0,75,-99.99,,,-99.99,0.120000,,2013-02-27 13:11:00,
2013-02-27 06:42:00,13.0,9.0,-100.00,NNE,31,1.0,2.0,82,-99.99,,,-99.99,0.120000,,2013-02-27 13:42:00,
2013-02-27 06:52:00,13.0,9.0,-100.00,NNE,31,1.0,2.0,82,-99.99,,,-99.99,0.120000,,2013-02-27 13:52:00,
2013-02-27 07:02:00,13.0,9.0,-100.00,NNE,31,1.0,2.0,82,-99.99,,,-99.99,0.120000,,2013-02-27 14:02:00,
2013-02-27 07:11:00,13.0,9.0,-100.00,NNE,31,1.0,2.0,82,-99.99,,,-99.99,0.120000,,2013-02-27 14:11:00,
2013-02-27 07:42:00,14.0,9.0,-100.00,ESE,112,3.0,7.0,81,-99.99,,,-99.99,2.210000,,2013-02-27 14:42:00,
2013-02-27 07:52:00,14.0,9.0,-100.00,ESE,112,3.0,7.0,81,-99.99,,,-99.99,2.210000,,2013-02-27 14:52:00,
2013-02-27 08:02:00,14.0,9.0,-100.00,ESE,112,3.0,7.0,81,-99.99,,,-99.99,2.210000,,2013-02-27 15:02:00,
2013-02-27 08:12:00,14.0,9.0,-100.00,ESE,112,3.0,7.0,81,-99.99,,,-99.99,2.210000,,2013-02-27 15:12:00,
2013-02-27 08:42:00,18.0,12.0,-100.00,WSW,247,2.0,4.0,79,-99.99,,,-99.99,86.349998,,2013-02-27 15:42:00,
2013-02-27 08:52:00,18.0,12.0,-100.00,WSW,247,2.0,4.0,79,-99.99,,,-99.99,86.349998,,2013-02-27 15:52:00,
2013-02-27 09:01:00,18.0,12.0,-100.00,WSW,247,2.0,4.0,79,-99.99,,,-99.99,86.349998,,2013-02-27 16:01:00,
2013-02-27 09:11:00,18.0,12.0,-100.00,WSW,247,2.0,4.0,79,-99.99,,,-99.99,86.349998,,2013-02-27 16:11:00,
2013-02-27 09:42:00,26.0,15.0,-100.00,SSW,206,7.0,13.0,62,-99.99,,,-99.99,186.070007,,2013-02-27 16:42:00,
2013-02-27 09:52:00,26.0,15.0,-100.00,SSW,206,7.0,13.0,62,-99.99,,,-99.99,186.070007,,2013-02-27 16:52:00,
2013-02-27 10:01:00,26.0,15.0,-100.00,SSW,206,7.0,13.0,62,-99.99,,,-99.99,186.070007,,2013-02-27 17:01:00,
2013-02-27 10:11:00,26.0,15.0,-100.00,SSW,206,7.0,13.0,62,-99.99,,,-99.99,186.070007,,2013-02-27 17:11:00,
2013-02-27 10:41:00,31.0,11.0,-100.00,South,189,15.0,21.0,44,-99.99,,,0.00,391.549988,,2013-02-27 17:41:00,
2013-02-27 10:52:00,31.0,11.0,-100.00,South,189,15.0,21.0,44,-99.99,,,0.00,391.549988,,2013-02-27 17:52:00,
2013-02-27 11:01:00,31.0,11.0,-100.00,South,189,15.0,21.0,44,-99.99,,,0.00,391.549988,,2013-02-27 18:01:00,
2013-02-27 11:11:00,31.0,11.0,-100.00,South,189,15.0,21.0,44,-99.99,,,0.00,391.549988,,2013-02-27 18:11:00,
2013-02-27 11:42:00,35.0,10.0,-100.00,South,187,20.0,27.0,34,-99.99,,,-99.99,611.429993,,2013-02-27 18:42:00,
2013-02-27 11:52:00,35.0,10.0,-100.00,South,187,20.0,27.0,34,-99.99,,,-99.99,611.429993,,2013-02-27 18:52:00,
2013-02-27 12:01:00,35.0,10.0,-100.00,South,187,20.0,27.0,34,-99.99,,,-99.99,611.429993,,2013-02-27 19:01:00,
2013-02-27 12:11:00,35.0,10.0,-100.00,South,187,20.0,27.0,34,-99.99,,,-99.99,611.429993,,2013-02-27 19:11:00,
2013-02-27 12:32:00,39.0,10.0,-100.00,South,187,20.0,29.0,29,-99.99,,,-99.99,680.119995,,2013-02-27 19:32:00,
2013-02-27 12:42:00,39.0,10.0,-100.00,South,187,20.0,29.0,29,-99.99,,,-99.99,680.119995,,2013-02-27 19:42:00,
2013-02-27 12:52:00,39.0,10.0,-100.00,South,187,20.0,29.0,29,-99.99,,,-99.99,680.119995,,2013-02-27 19:52:00,
2013-02-27 13:01:00,39.0,10.0,-100.00,South,187,20.0,29.0,29,-99.99,,,-99.99,680.119995,,2013-02-27 20:01:00,
2013-02-27 13:11:00,39.0,10.0,-100.00,South,187,20.0,29.0,29,-99.99,,,-99.99,680.119995,,2013-02-27 20:11:00,
2013-02-27 13:42:00,43.0,11.0,-100.00,WSW,251,13.0,22.0,27,-99.99,,,-99.99,555.419983,,2013-02-27 20:42:00,
2013-02-27 13:52:00,43.0,11.0,-100.00,WSW,251,13.0,22.0,27,-99.99,,,-99.99,555.419983,,2013-02-27 20:52:00,
2013-02-27 14:01:00,43.0,11.0,-100.00,WSW,251,13.0,22.0,27,-99.99,,,-99.99,555.419983,,2013-02-27 21:01:00,
2013-02-27 14:11:00,43.0,11.0,-100.00,WSW,251,13.0,22.0,27,-99.99,,,-99.99,555.419983,,2013-02-27 21:11:00,
2013-02-27 14:42:00,39.0,15.0,-100.00,North,0,12.0,18.0,36,-99.99,,,0.00,665.479980,,2013-02-27 21:42:00,
2013-02-27 14:52:00,39.0,15.0,-100.00,North,0,12.0,18.0,36,-99.99,,,0.00,665.479980,,2013-02-27 21:52:00,
2013-02-27 15:01:00,39.0,15.0,-100.00,North,0,12.0,18.0,36,-99.99,,,0.00,665.479980,,2013-02-27 22:01:00,
2013-02-27 15:11:00,39.0,15.0,-100.00,North,0,12.0,18.0,36,-99.99,,,0.00,665.479980,,2013-02-27 22:11:00,
2013-02-27 15:41:00,40.0,14.0,-100.00,NNE,32,7.0,14.0,33,-99.99,,,0.00,525.200012,,2013-02-27 22:41:00,
2013-02-27 15:52:00,40.0,14.0,-100.00,NNE,32,7.0,14.0,33,-99.99,,,0.00,525.200012,,2013-02-27 22:52:00,
2013-02-27 16:01:00,40.0,14.0,-100.00,NNE,32,7.0,14.0,33,-99.99,,,0.00,525.200012,,2013-02-27 23:01:00,
2013-02-27 16:11:00,40.0,14.0,-100.00,NNE,32,7.0,14.0,33,-99.99,,,0.00,525.200012,,2013-02-27 23:11:00,
2013-02-27 16:32:00,39.0,15.0,-100.00,NE,39,10.0,15.0,36,-99.99,,,0.00,363.649994,,2013-02-27 23:32:00,
2013-02-27 16:42:00,39.0,15.0,-100.00,NE,39,10.0,15.0,36,-99.99,,,0.00,363.649994,,2013-02-27 23:42:00,
2013-02-27 16:53:00,39.0,15.0,-100.00,NE,39,10.0,15.0,36,-99.99,,,0.00,363.649994,,2013-02-27 23:53:00,
2013-02-27 17:01:00,39.0,15.0,-100.00,NE,39,10.0,15.0,36,-99.99,,,0.00,363.649994,,2013-02-28 00:01:00,
2013-02-27 17:11:00,39.0,15.0,-100.00,NE,39,10.0,15.0,36,-99.99,,,0.00,363.649994,,2013-02-28 00:11:00,
2013-02-27 17:32:00,36.0,15.0,-100.00,North,1,8.0,15.0,41,-99.99,,,0.00,97.620003,,2013-02-28 00:32:00,
2013-02-27 17:42:00,36.0,15.0,-100.00,North,1,8.0,15.0,41,-99.99,,,0.00,97.620003,,2013-02-28 00:42:00,
2013-02-27 17:52:00,36.0,15.0,-100.00,North,1,8.0,15.0,41,-99.99,,,0.00,97.620003,,2013-02-28 00:52:00,
2013-02-27 18:01:00,36.0,15.0,-100.00,North,1,8.0,15.0,41,-99.99,,,0.00,97.620003,,2013-02-28 01:01:00,
2013-02-27 18:11:00,36.0,15.0,-100.00,North,1,8.0,15.0,41,-99.99,,,0.00,97.620003,,2013-02-28 01:11:00,
2013-02-27 18:41:00,34.0,15.0,-100.00,NE,56,11.0,17.0,44,-99.99,,,0.00,8.720000,,2013-02-28 01:41:00,
2013-02-27 18:52:00,34.0,15.0,-100.00,NE,56,11.0,17.0,44,-99.99,,,0.00,8.720000,,2013-02-28 01:52:00,
2013-02-27 19:01:00,34.0,15.0,-100.00,NE,56,11.0,17.0,44,-99.99,,,0.00,8.720000,,2013-02-28 02:01:00,
2013-02-27 19:11:00,34.0,15.0,-100.00,NE,56,11.0,17.0,44,-99.99,,,0.00,8.720000,,2013-02-28 02:11:00,
2013-02-27 20:01:00,31.0,16.0,-100.00,North,9,5.0,10.0,53,-99.99,,,0.00,0.120000,,2013-02-28 03:01:00,
2013-02-27 20:11:00,31.0,16.0,-100.00,North,9,5.0,10.0,53,-99.99,,,0.00,0.120000,,2013-02-28 03:11:00,
2013-02-27 20:31:00,29.0,16.0,-100.00,ESE,106,3.0,4.0,59,-99.99,,,0.00,0.120000,,2013-02-28 03:31:00,
2013-02-27 20:41:00,29.0,16.0,-100.00,ESE,106,3.0,4.0,59,-99.99,,,0.00,0.120000,,2013-02-28 03:41:00,
2013-02-27 20:52:00,29.0,16.0,-100.00,ESE,106,3.0,4.0,59,-99.99,,,0.00,0.120000,,2013-02-28 03:52:00,
2013-02-27 21:01:00,29.0,16.0,-100.00,ESE,106,3.0,4.0,59,-99.99,,,0.00,0.120000,,2013-02-28 04:01:00,
2013-02-27 21:11:00,29.0,16.0,-100.00,ESE,106,3.0,4.0,59,-99.99,,,0.00,0.120000,,2013-02-28 04:11:00,
2013-02-27 21:42:00,22.0,17.0,-100.00,West,273,4.0,7.0,80,-99.99,,,0.00,0.120000,,2013-02-28 04:42:00,
2013-02-27 21:52:00,22.0,17.0,-100.00,West,273,4.0,7.0,80,-99.99,,,0.00,0.120000,,2013-02-28 04:52:00,
2013-02-27 22:01:00,22.0,17.0,-100.00,West,273,4.0,7.0,80,-99.99,,,0.00,0.120000,,2013-02-28 05:01:00,
2013-02-27 22:11:00,22.0,17.0,-100.00,West,273,4.0,7.0,80,-99.99,,,0.00,0.120000,,2013-02-28 05:11:00,
2013-02-27 22:42:00,22.0,16.0,-100.00,WNW,287,3.0,5.0,78,-99.99,,,0.00,0.120000,,2013-02-28 05:42:00,
2013-02-27 22:52:00,22.0,16.0,-100.00,WNW,287,3.0,5.0,78,-99.99,,,0.00,0.120000,,2013-02-28 05:52:00,
2013-02-27 23:01:00,22.0,16.0,-100.00,WNW,287,3.0,5.0,78,-99.99,,,0.00,0.120000,,2013-02-28 06:01:00,
2013-02-27 23:11:00,22.0,16.0,-100.00,WNW,287,3.0,5.0,78,-99.99,,,0.00,0.120000,,2013-02-28 06:11:00,
2013-02-27 23:42:00,21.0,15.0,-100.00,WSW,255,2.0,4.0,78,-99.99,,,0.00,0.120000,,2013-02-28 06:42:00,
2013-02-27 23:52:00,21.0,15.0,-100.00,WSW,255,2.0,4.0,78,-99.99,,,0.00,0.120000,,2013-02-28 06:52:00,